STARLINK-33747, 63444

Orbit data source: Space-Track

STARLINK-33747, 63444 is a payload satellite owned by SpaceX/Seattle (US) in LEO that was launched on Fri, 04 Apr 2025 UTC via an FALCON 9 launch vehicle from the Air Force Western Test Range (AFWTR). Payload-class satellites include a variety of spacecraft equipped with specific instruments for various scientific and technological missions. These include communications satellites like Starlink; space stations such as the ISS; scientific satellites like the Hubble; Earth observation satellites from companies like Planet Labs, Umbra, and HawkEye 360; GPS; miniature CubeSats for education and research; and military/defense satellites.

Loading next visibility...
Identifier
63444, 2025-069M
Orbit
LEO
Country
Flag of USUS
Related business
Manufacturer
SpaceX/Seattle
Mission
Operational Commercial Communications
Bus & Motor
STARLINK V2MO, Unknown motor
Mass
575 kg wet, ~530 kg dry
Launch date (UTC)
2025-04-04 (8 months ago)
Launch vehicle
FALCON 9
Launch site
Air Force Western Test Range (AFWTR)
Object type
Payload
Rocket body
Debris
Shape & HBR
Box + 2 Pan, 17.7 m
Radar Cross Section
36.964 m², Large (>1 m²)

Expand to show TLE details & history
Last TLE update: 17 hours ago

TLE from 17 hours ago
0 STARLINK-33747
1 63444U 25069M   25348.89339598 -.00013124  00000-0 -43216-3 0  9991
2 63444  53.1563 176.2318 0000658  70.3783 289.7288 15.30171146 40378
Epoch: 2025-12-14T21:26Z
TLE epoch observation values (Epoch: 2025-12-14T21:26:29.412Z)
Latitude
-0.00008°
Longitude
130.80941°
Altitude
476.048 km
Speed
7.629 km/s
True Right ascension
11h 44m 55s
True Declination
0° 00' 00"
Sunlit
Object was in daylight at epoch
Visualization orbit readout
Latitude
Unknown
Longitude
Unknown
Altitude
Unknown
Speed
Unknown
Apparent Right ascension
Unknown
Apparent Declination
Unknown
Sunlit
N/A
Visualization observer readout
Local Sidereal Time
13:26:11
Azimuth
Unknown
Elevation
Unknown
Doppler factor
Unknown
Orbital elements
Apogee altitude
476.009 km
Perigee altitude
475.107 km
Semi-major axis
6,853.695 km
Eccentricity
0.00007
Inclination
53.1563°
RAAN
176.2318°
Arg. of periapsis
70.3783°
True anomaly
289.7217°
Mean anomaly
289.7288°
Eccentric anomaly
289.72525°
Mean motion
3.82522 °/min
Orbital period
94.11 mins
BSTAR
-0.00043216
Loading maneuver chart data...
Computing Atmospheric mass density...
Loading historical data...
Loading historical data...
Loading historical data...
Loading historical data...
Loading historical data...
Loading historical data...
Loading historical data...

Documentation

Showing up to 5 results
|